DELTA 1 DEB, 3417

Orbit data source: Space-Track

DELTA 1 DEB, 3417 is space debris in SSO originally from a launch on Fri, 16 Aug 1968 UTC launched from the Air Force Western Test Range (AFWTR). Debris objects in space refer to the collection of defunct objects orbiting the Earth. Examples of debris include non-operational satellites, rocket bodies, and fragments generated from explosions, collisions, or faulty payload assembly.

Loading next visibility...
Identifier
3417, 1968-069D
Orbit
SSO
Country
Flag of USUS
Related business
Manufacturer
Unknown
Mission
Spacecraft
Bus & Motor
Unknown
Mass
Unknown
Launch date (UTC)
1968-08-16 (57 years ago)
Launch vehicle
Unknown
Launch site
Air Force Western Test Range (AFWTR)
Object type
Payload
Rocket body
Debris
Shape & HBR
Unknown shape, 0.1 m
Radar Cross Section
Small (<0.1 m²)

Expand to show TLE details & history
Last TLE update: 10 hours ago

TLE from 10 hours ago
0 DELTA 1 DEB
1  3417U 68069D   26036.33193139 -.00000028  00000-0  13381-3 0  9993
2  3417 102.1687 340.8946 0065774 300.0676 213.1913 12.39777196906497
Epoch: 2026-02-05T07:57Z
TLE epoch observation values (Epoch: 2026-02-05T07:57:58.872Z)
Latitude
26.52748°
Longitude
-87.93714°
Altitude
1,553.967 km
Speed
7.073 km/s
True Right ascension
11h 08m 10s
True Declination
26° 24' 15"
Sunlit
Object was in full shadow at epoch
Visualization orbit readout
Latitude
Unknown
Longitude
Unknown
Altitude
Unknown
Speed
Unknown
Apparent Right ascension
Unknown
Apparent Declination
Unknown
Sunlit
N/A
Visualization observer readout
Local Sidereal Time
19:37:40
Azimuth
Unknown
Elevation
Unknown
Doppler factor
Unknown
Orbital elements
Apogee altitude
1,556.984 km
Perigee altitude
1,453.281 km
Semi-major axis
7,883.27 km
Eccentricity
0.00658
Inclination
102.1687°
RAAN
340.8946°
Arg. of periapsis
300.0676°
True anomaly
212.78151°
Mean anomaly
213.1913°
Eccentric anomaly
212.98613°
Mean motion
3.10087 °/min
Orbital period
116.1 mins
BSTAR
0.00013381
Loading maneuver chart data...
Computing Atmospheric mass density...
Loading historical data...
Loading historical data...
Loading historical data...
Loading historical data...
Loading historical data...
Loading historical data...
Loading historical data...

Documentation

Showing up to 5 results
|